Погода в Югоренке

Россия / Республика Саха (Якутия)     59°45′19″N   137°41′42″E
темп.,
°C
ветер,
м/с
пор.,
м/с
влажн.,
%
обл.,
%
осадки,
мм/ч
давл.,
гПа
погр.,
м
27 февраля, сб
сб2700:00−34зсз119782 0.0 103319
03:00−36зсз019877 0.0 103219
06:00−37зсз009945 0.0 103219
09:00−32ю009429 0.0 103147
12:00−26ююв018715 0.0 1027234
15:00−24всв018615 0.0 1024251
18:00−30всв11944 0.0 102319
21:00−31всв119315 0.0 102219
28 февраля, вс
вс2800:00−30всв229171 0.0 102020
03:00−30всв118986 0.0 101820
06:00−30в1187100 0.0 101819
09:00−25всв1186100 0.0 1018101
12:00−21в1191100 0.2 1018272
15:00−20юз1191100 0.3 1018306
18:00−23зюз11100100 0.2 102020
21:00−23з2297100 0.4 102129
1 марта, пн
пн100:00−26зсз2294100 0.1 102130
03:00−27зсз2294100 0.1 102231
06:00−28зсз2294100 0.0 102339
09:00−27з2389100 0.1 1023399
12:00−26зсз3581100 0.0 1022799
15:00−27зсз3681100 0.0 1022753
18:00−29зсз2291100 0.0 102355
21:00−30зсз2294100 0.1 102360
2 марта, вт
вт200:00−31зсз2297100 0.1 102337
03:00−31зсз1198100 0.3 102232
06:00−31зсз1198100 0.2 102330
09:00−30зсз1293100 0.4 1023378
12:00−28зсз2385100 0.1 1022752
15:00−28зсз2389100 0.3 1022748
18:00−30зсз1298100 0.1 102325
21:00−31зсз1197100 0.2 102420
3 марта, ср
ср300:00−32з1198100 0.1 102419
03:00−32з1198100 0.2 102319
06:00−32з1198100 0.1 102219
09:00−30з1193100 0.1 1021238
12:00−28з1286100 0.1 1018554
15:00−27з1384100 0.1 1016655
18:00−31з1294100 0.0 101519
21:00−34з129499 0.0 101519